Time,TemperatureF,DewpointF,PressureIn,WindDirection,WindDirectionDegrees,WindSpeedMPH,WindSpeedGustMPH,Humidity,HourlyPrecipIn,Conditions,Clouds,dailyrainin,SoftwareType,DateUTC
2013-07-13 00:11:00,67.0,64.0,-100.00,SSE,155,4.0,6.0,88,0.00,,,-99.99,,2013-07-13 05:11:00,
2013-07-13 00:32:00,67.0,63.0,-100.00,SSE,150,4.0,6.0,89,0.00,,,-99.99,,2013-07-13 05:32:00,
2013-07-13 00:42:00,66.0,64.0,-100.00,SE,145,3.0,4.0,92,0.00,,,-99.99,,2013-07-13 05:42:00,
2013-07-13 00:52:00,66.0,64.0,-100.00,SE,145,3.0,5.0,93,0.00,,,-99.99,,2013-07-13 05:52:00,
2013-07-13 01:11:00,65.0,64.0,-100.00,SSE,155,2.0,6.0,93,0.00,,,-99.99,,2013-07-13 06:11:00,
2013-07-13 01:32:00,64.0,64.0,-100.00,SE,145,3.0,4.0,98,0.00,,,-99.99,,2013-07-13 06:32:00,
2013-07-13 01:43:00,64.0,64.0,-100.00,SE,145,4.0,5.0,97,0.00,,,-99.99,,2013-07-13 06:43:00,
2013-07-13 02:02:00,65.0,64.0,-100.00,SSE,150,4.0,6.0,97,0.07,,,-99.99,,2013-07-13 07:02:00,
2013-07-13 02:11:00,65.0,64.0,-100.00,SSE,150,4.0,6.0,97,0.07,,,-99.99,,2013-07-13 07:11:00,
2013-07-13 02:33:00,63.0,63.0,-100.00,SE,140,2.0,2.0,99,0.00,,,-99.99,,2013-07-13 07:33:00,
2013-07-13 02:44:00,63.0,63.0,-100.00,SSE,150,4.0,5.0,99,0.00,,,-99.99,,2013-07-13 07:44:00,
2013-07-13 02:53:00,63.0,63.0,-100.00,SSE,150,4.0,5.0,99,0.00,,,-99.99,,2013-07-13 07:53:00,
2013-07-13 03:11:00,63.0,63.0,-100.00,SE,145,4.0,5.0,99,0.00,,,-99.99,,2013-07-13 08:11:00,
2013-07-13 03:33:00,63.0,63.0,-100.00,SSE,155,4.0,6.0,99,0.00,,,-99.99,,2013-07-13 08:33:00,
2013-07-13 03:43:00,63.0,63.0,-100.00,SSE,155,4.0,6.0,99,0.00,,,-99.99,,2013-07-13 08:43:00,
2013-07-13 03:52:00,63.0,63.0,-100.00,SSE,155,4.0,6.0,99,0.00,,,-99.99,,2013-07-13 08:52:00,
2013-07-13 04:33:00,62.0,62.0,-100.00,South,185,1.0,4.0,99,0.00,,,-99.99,,2013-07-13 09:33:00,
2013-07-13 04:43:00,62.0,62.0,-100.00,SE,140,2.0,5.0,99,0.00,,,-99.99,,2013-07-13 09:43:00,
2013-07-13 04:53:00,63.0,62.0,-100.00,SE,140,3.0,5.0,99,0.00,,,-99.99,,2013-07-13 09:53:00,
2013-07-13 05:11:00,62.0,62.0,-100.00,SSE,155,2.0,4.0,99,0.00,,,-99.99,,2013-07-13 10:11:00,
2013-07-13 05:32:00,61.0,61.0,-100.00,SE,145,2.0,4.0,99,0.00,,,-99.99,,2013-07-13 10:32:00,
2013-07-13 05:43:00,61.0,61.0,-100.00,SSE,150,1.0,4.0,99,0.00,,,-99.99,,2013-07-13 10:43:00,
2013-07-13 06:11:00,62.0,62.0,-100.00,SSE,155,4.0,4.0,99,0.00,,,-99.99,,2013-07-13 11:11:00,
2013-07-13 06:32:00,62.0,62.0,-100.00,South,170,3.0,5.0,99,0.00,,,-99.99,,2013-07-13 11:32:00,
2013-07-13 06:42:00,62.0,62.0,-100.00,SSE,150,4.0,5.0,99,0.00,,,-99.99,,2013-07-13 11:42:00,
2013-07-13 06:52:00,63.0,63.0,-100.00,SSE,150,4.0,6.0,99,0.00,,,-99.99,,2013-07-13 11:52:00,
2013-07-13 07:32:00,64.0,64.0,-100.00,SSE,165,6.0,9.0,99,0.00,,,-99.99,,2013-07-13 12:32:00,
2013-07-13 07:43:00,65.0,64.0,-100.00,SSE,165,6.0,6.0,97,0.00,,,-99.99,,2013-07-13 12:43:00,
2013-07-13 07:52:00,65.0,64.0,-100.00,SSE,165,4.0,7.0,95,0.00,,,-99.99,,2013-07-13 12:52:00,
2013-07-13 08:01:00,65.0,64.0,-100.00,SSE,165,4.0,7.0,95,0.00,,,-99.99,,2013-07-13 13:01:00,
2013-07-13 08:12:00,65.0,64.0,-100.00,SSE,150,5.0,7.0,95,0.00,,,-99.99,,2013-07-13 13:12:00,
2013-07-13 08:32:00,65.0,64.0,-100.00,SSE,155,4.0,8.0,94,0.00,,,-99.99,,2013-07-13 13:32:00,
2013-07-13 08:43:00,66.0,64.0,-100.00,SSE,150,4.0,11.0,93,0.00,,,-99.99,,2013-07-13 13:43:00,
2013-07-13 08:53:00,66.0,64.0,-100.00,SSE,160,7.0,11.0,93,0.00,,,-99.99,,2013-07-13 13:53:00,
2013-07-13 09:02:00,66.0,64.0,-100.00,SSE,160,7.0,11.0,93,0.00,,,-99.99,,2013-07-13 14:02:00,
2013-07-13 09:11:00,66.0,64.0,-100.00,SSE,155,6.0,9.0,93,0.00,,,-99.99,,2013-07-13 14:11:00,
2013-07-13 09:32:00,66.0,64.0,-100.00,SE,145,7.0,10.0,92,0.00,,,-99.99,,2013-07-13 14:32:00,
2013-07-13 09:43:00,67.0,64.0,-100.00,SSE,155,7.0,10.0,92,0.00,,,-99.99,,2013-07-13 14:43:00,
2013-07-13 10:02:00,67.0,64.0,-100.00,SSE,155,7.0,10.0,92,0.00,,,-99.99,,2013-07-13 15:02:00,
2013-07-13 10:33:00,67.0,65.0,-100.00,SE,145,7.0,11.0,90,0.00,,,-99.99,,2013-07-13 15:33:00,
2013-07-13 10:43:00,68.0,66.0,-100.00,WSW,255,3.0,11.0,93,0.00,,,-99.99,,2013-07-13 15:43:00,
2013-07-13 11:11:00,69.0,66.0,-100.00,SSE,160,6.0,10.0,90,0.00,,,-99.99,,2013-07-13 16:11:00,
2013-07-13 11:33:00,69.0,65.0,-100.00,SE,135,7.0,12.0,89,0.00,,,-99.99,,2013-07-13 16:33:00,
2013-07-13 11:43:00,69.0,66.0,-100.00,ESE,110,7.0,11.0,91,0.00,,,-99.99,,2013-07-13 16:43:00,
2013-07-13 12:12:00,70.0,68.0,-100.00,ESE,120,4.0,7.0,91,0.00,,,-99.99,,2013-07-13 17:12:00,
2013-07-13 12:33:00,70.0,66.0,-100.00,SSE,150,7.0,9.0,87,0.00,,,-99.99,,2013-07-13 17:33:00,
2013-07-13 12:43:00,71.0,67.0,-100.00,SE,125,4.0,8.0,89,0.00,,,-99.99,,2013-07-13 17:43:00,
2013-07-13 13:32:00,71.0,67.0,-100.00,ESE,115,6.0,9.0,89,0.00,,,-99.99,,2013-07-13 18:32:00,
2013-07-13 13:44:00,71.0,68.0,-100.00,East,95,4.0,8.0,90,0.00,,,-99.99,,2013-07-13 18:44:00,
2013-07-13 14:11:00,71.0,70.0,-100.00,East,85,2.0,6.0,97,0.04,,,-99.99,,2013-07-13 19:11:00,
2013-07-13 14:32:00,70.0,70.0,-100.00,East,95,3.0,4.0,99,0.03,,,-99.99,,2013-07-13 19:32:00,
2013-07-13 14:44:00,70.0,70.0,-100.00,ESE,115,3.0,6.0,99,0.00,,,-99.99,,2013-07-13 19:44:00,
2013-07-13 14:52:00,70.0,70.0,-100.00,ESE,115,3.0,6.0,99,0.00,,,-99.99,,2013-07-13 19:52:00,
2013-07-13 15:33:00,71.0,71.0,-100.00,SE,130,4.0,6.0,99,0.00,,,-99.99,,2013-07-13 20:33:00,
2013-07-13 15:43:00,72.0,70.0,-100.00,SE,135,7.0,11.0,93,0.00,,,-99.99,,2013-07-13 20:43:00,
2013-07-13 15:53:00,72.0,70.0,-100.00,SE,140,6.0,12.0,91,0.00,,,-99.99,,2013-07-13 20:53:00,
2013-07-13 16:12:00,73.0,69.0,-100.00,SE,145,10.0,14.0,88,0.00,,,-99.99,,2013-07-13 21:12:00,
2013-07-13 16:32:00,73.0,69.0,-100.00,SSE,155,11.0,16.0,87,0.00,,,-99.99,,2013-07-13 21:32:00,
2013-07-13 16:42:00,73.0,69.0,-100.00,SE,140,10.0,17.0,88,0.00,,,-99.99,,2013-07-13 21:42:00,
2013-07-13 16:53:00,73.0,69.0,-100.00,SE,125,11.0,17.0,88,0.00,,,-99.99,,2013-07-13 21:53:00,
2013-07-13 17:12:00,73.0,71.0,-100.00,ESE,110,7.0,14.0,92,0.00,,,-99.99,,2013-07-13 22:12:00,
2013-07-13 17:32:00,73.0,70.0,-100.00,ESE,120,11.0,16.0,90,0.00,,,-99.99,,2013-07-13 22:32:00,
2013-07-13 17:43:00,73.0,70.0,-100.00,SE,130,7.0,13.0,88,0.00,,,-99.99,,2013-07-13 22:43:00,
2013-07-13 18:11:00,73.0,70.0,-100.00,ESE,120,6.0,11.0,88,0.00,,,-99.99,,2013-07-13 23:11:00,
2013-07-13 18:32:00,73.0,70.0,-100.00,SE,140,3.0,8.0,89,0.00,,,-99.99,,2013-07-13 23:32:00,
2013-07-13 18:42:00,73.0,71.0,-100.00,ESE,110,4.0,6.0,91,0.00,,,-99.99,,2013-07-13 23:42:00,
2013-07-13 18:53:00,73.0,71.0,-100.00,SE,125,4.0,5.0,94,0.00,,,-99.99,,2013-07-13 23:53:00,
2013-07-13 19:12:00,72.0,72.0,-100.00,SE,130,3.0,4.0,98,0.00,,,-99.99,,2013-07-14 00:12:00,
2013-07-13 19:21:00,72.0,72.0,-100.00,SE,130,3.0,4.0,98,0.00,,,-99.99,,2013-07-14 00:21:00,
2013-07-13 19:33:00,72.0,72.0,-100.00,SE,130,3.0,4.0,98,0.00,,,-99.99,,2013-07-14 00:33:00,
2013-07-13 19:42:00,72.0,72.0,-100.00,SW,230,0.0,1.0,99,0.00,,,-99.99,,2013-07-14 00:42:00,
2013-07-13 19:53:00,72.0,72.0,-100.00,West,280,0.0,1.0,99,0.00,,,-99.99,,2013-07-14 00:53:00,
2013-07-13 20:11:00,72.0,-99.9,-100.00,ESE,105,1.0,1.0,-999,0.00,,,-99.99,,2013-07-14 01:11:00,
2013-07-13 20:32:00,71.0,71.0,-100.00,East,95,0.0,1.0,99,0.00,,,-99.99,,2013-07-14 01:32:00,
2013-07-13 20:43:00,71.0,71.0,-100.00,ENE,70,2.0,2.0,99,0.00,,,-99.99,,2013-07-14 01:43:00,
2013-07-13 20:52:00,70.0,70.0,-100.00,ENE,65,3.0,3.0,99,0.00,,,-99.99,,2013-07-14 01:52:00,
2013-07-13 21:32:00,68.0,68.0,-100.00,NE,55,3.0,4.0,99,0.00,,,-99.99,,2013-07-14 02:32:00,
2013-07-13 21:43:00,67.0,67.0,-100.00,East,90,3.0,4.0,99,0.00,,,-99.99,,2013-07-14 02:43:00,
2013-07-13 22:11:00,68.0,68.0,-100.00,East,100,4.0,6.0,99,0.00,,,-99.99,,2013-07-14 03:11:00,
2013-07-13 22:32:00,67.0,67.0,-100.00,East,90,4.0,6.0,99,0.00,,,-99.99,,2013-07-14 03:32:00,
2013-07-13 22:43:00,67.0,67.0,-100.00,ESE,105,4.0,7.0,99,0.00,,,-99.99,,2013-07-14 03:43:00,
2013-07-13 22:53:00,68.0,68.0,-100.00,ESE,105,4.0,6.0,99,0.00,,,-99.99,,2013-07-14 03:53:00,
2013-07-13 23:02:00,68.0,68.0,-100.00,ESE,105,4.0,6.0,99,0.00,,,-99.99,,2013-07-14 04:02:00,
2013-07-13 23:11:00,67.0,-99.9,-100.00,East,95,6.0,7.0,-999,0.00,,,-99.99,,2013-07-14 04:11:00,
2013-07-13 23:22:00,67.0,-99.9,-100.00,East,95,6.0,7.0,-999,0.00,,,-99.99,,2013-07-14 04:22:00,
2013-07-13 23:32:00,67.0,-99.9,-100.00,East,95,6.0,7.0,-999,0.00,,,-99.99,,2013-07-14 04:32:00,
2013-07-13 23:42:00,66.0,66.0,-100.00,ESE,105,6.0,8.0,99,0.00,,,-99.99,,2013-07-14 04:42:00,